Location: Frisco
(33.1507°N, 96.8236°W)
Time: 01:14:05
(UTC+00:00)

Daily predictions for brighter satellites

Satellite Brightness Start Highest point End
(mag) Time Altitude Azimuth Time Altitude Azimuth Time Altitude Azimuth
S3M 4.4 01:38:46 10° SSE 01:44:43 43° E 01:50:38 10° NNE
X-37B 3.1 01:48:33 10° NNW 01:50:32 15° NNE 01:52:32 10° NE
Delta 2 Rocket 3.8 01:51:21 10° WSW 01:56:45 76° SSE 02:01:36 10° ENE
Geosat 4.2 01:53:07 10° SSE 01:58:07 78° WSW 02:03:10 10° NNW
OBJECT-B 1.7 01:56:03 10° SE 01:58:57 31° ENE 02:01:51 10° N
ARGOS 4.2 01:54:44 10° S 01:59:50 46° W 02:04:59 10° NNW
Cosmos 1553 Rocket 4.0 01:54:02 10° S 02:00:09 89° E 02:06:24 10° N
Cosmos 1805 Rocket 4.0 01:57:29 10° N 02:01:38 41° E 02:05:46 10° SSE
Cosmos 1437 Rocket 3.0 01:57:50 10° SSW 02:01:41 72° W 02:05:37 10° N
ERS-2 2.2 01:59:09 10° N 02:02:47 80° WNW 02:06:24 10° SSW
USA 267 3.3 02:03:13 10° SE 02:09:47 86° NE 02:16:23 10° NW
Cosmos 1606 4.0 02:06:15 10° SSW 02:09:49 42° W 02:13:26 10° N
ISS -2.4 02:09:33 10° S 02:12:00 19° SE 02:13:27 15° E
Helios 1A Rocket 3.1 02:08:28 10° S 02:12:35 77° WSW 02:16:44 10° NNW
Cosmos 1777 Rocket 4.5 02:09:18 10° SSE 02:14:04 38° E 02:18:51 10° NE
Cosmos 1503 Rocket 4.3 02:10:47 10° SSW 02:15:54 70° WNW 02:21:06 10° NNE
CZ-4 R/B 4.2 02:14:02 10° SW 02:16:38 16° W 02:19:14 10° NW
Cosmos 1743 Rocket 4.1 02:12:29 10° NNW 02:16:48 62° W 02:21:07 10° S
USA 290 2.5 02:14:41 10° N 02:17:50 49° ENE 02:19:47 20° SE
Meteor 1-26 Rocket 4.4 02:13:45 10° SSE 02:19:15 50° E 02:24:35 10° NNE
Ariane Rocket 3.4 02:16:50 14° SE 02:20:51 44° ENE 02:25:38 10° N
MOS 1-B Rocket 4.1 02:15:16 10° NNE 02:22:11 88° ESE 02:28:08 10° SSW
Cosmos 1437 3.4 02:25:45 27° ESE 02:26:00 27° E 02:28:28 10° NNE
Tianhe-1 1.2 02:23:24 10° SW 02:26:25 47° SSE 02:28:15 20° E
Cosmos 1933 3.4 02:23:28 10° S 02:27:29 80° W 02:31:32 10° N
Resurs 1-3 3.9 02:27:17 19° SE 02:30:05 47° ENE 02:34:17 10° N
OAO 3 Rocket 3.3 02:26:27 10° SW 02:30:56 50° SSE 02:34:13 18° E
Cosmos 1782 2.8 02:29:42 12° S 02:33:21 58° E 02:37:16 10° NNE
DELTA 2 R/B (1) 3.5 02:29:20 10° WNW 02:34:55 85° SSW 02:38:23 24° ESE
Cosmos 1666 Rocket 3.9 02:32:26 10° N 02:36:38 45° E 02:38:36 26° SE
Cosmos 1812 3.8 02:37:33 25° E 02:37:42 25° E 02:40:54 10° NE
SJ 16-02 2.2 02:36:32 26° SE 02:37:46 30° E 02:41:39 10° NE
Cosmos 2278 Rocket 2.2 02:33:31 10° S 02:39:02 59° ESE 02:44:36 10° NNE
IRS-1A Rocket 4.3 02:34:19 16° SSE 02:39:03 73° ENE 02:44:54 10° N
Meteor 1-20 Rocket 4.1 02:36:11 10° N 02:41:45 82° E 02:46:07 16° S
Sich 1 3.1 02:40:08 10° N 02:44:30 77° W 02:47:56 16° S
SJ-6B 3.5 02:41:06 12° S 02:44:36 52° W 02:48:29 10° NNW
Cosmos 1151 Rocket 3.0 02:46:20 10° S 02:50:40 84° W 02:55:03 10° N
ATLAS 5 CENTAUR R/B 2.5 02:51:22 10° NNW 02:57:26 87° WSW 03:01:21 28° SSE
Meteor 2-17 Rocket 4.4 02:51:20 10° N 02:57:30 79° E 03:01:23 24° SSE
Mugunghwa Rocket 4.3 02:51:32 10° WSW 02:57:33 46° S 03:00:08 31° ESE
CZ-4C R/B 3.5 02:53:13 10° NNW 03:00:32 47° NE 03:04:45 28° ESE
IGS 5A 3.5 03:03:39 49° ESE 03:04:20 56° ENE 03:08:23 10° N
SPOT 1/Viking Rocket 4.3 03:03:30 32° E 03:04:33 35° ENE 03:09:13 10° N
Centaur D-1AR AC-36 3.5 03:09:35 10° SW 03:10:41 14° SSW 03:10:41 14° SSW
Cosmos 1500 3.2 03:13:10 10° N 03:16:32 62° NE 03:16:32 62° NE
Cosmos 1709 Rocket 4.0 03:11:50 10° N 03:17:55 75° W 03:21:27 27° S
SPOT 3 Rocket 3.4 03:18:18 46° SSE 03:19:52 85° ENE 03:25:02 10° NNW
Cosmos 2228 Rocket 4.4 03:21:24 26° ENE 03:21:24 26° ENE 03:23:58 10° NNE
Resurs 01 Rocket 1.6 03:19:13 52° S 03:20:16 79° W 03:24:43 10° NNW
Cosmos 1833 Rocket 2.9 03:15:05 10° N 03:20:36 52° ENE 03:21:40 45° ESE
CZ-2C R/B 3.7 03:16:57 10° N 03:21:29 84° WNW 03:23:09 40° SSW
GPS 2-04 Rocket1 3.1 03:18:46 10° WNW 03:22:51 60° N 03:23:21 55° NE
Cosmos 2184 Rocket 4.4 03:19:33 10° N 03:25:21 41° E 03:26:01 40° E
Cosmos 773 Rocket 4.0 03:20:36 10° NNW 03:25:54 80° WSW 03:27:15 51° S
Cosmos 2074 Rocket 4.3 03:21:18 10° N 03:27:18 45° E 03:28:08 43° ESE
X-37B 2.0 03:24:24 10° NW 03:26:35 39° NW 03:26:35 39° NW
Spot 2 Rocket 4.0 03:28:09 42° ENE 03:28:15 43° ENE 03:32:59 10° N
CRYOSAT 2 4.4 03:28:24 51° S 03:29:36 79° W 03:34:30 10° N
ERS-1 Rocket 4.2 03:29:55 28° ENE 03:29:55 28° ENE 03:33:50 10° NNE
Cosmos 1538 Rocket 4.1 03:24:57 10° N 03:30:12 55° ENE 03:30:36 54° E
Cosmos 1515 Rocket 3.8 03:30:24 49° SW 03:31:24 67° W 03:35:46 10° N
Meteor 1-5 Rocket 3.9 03:28:32 10° N 03:33:50 70° E 03:34:18 66° ESE
Delta 2 Rocket 3.9 03:34:20 10° W 03:39:21 64° N 03:39:54 59° NE
Cosmos 2297 4.5 03:42:09 37° ENE 03:42:09 37° ENE 03:46:03 10° NE
USA 307 4.5 03:39:33 10° NNW 03:42:59 27° NNE 03:42:59 27° NNE
Meteor 1-10 Rocket 4.1 03:43:16 54° SSW 03:44:35 83° W 03:50:15 10° N
Cosmos 967 Rocket 4.4 03:45:38 61° ESE 03:45:38 61° ESE 03:51:41 10° NE
Cosmos 1271 Rocket 3.5 03:46:58 51° NNW 03:46:58 51° NNW 03:50:07 10° N
ISS -1.3 03:45:37 10° WSW 03:46:50 18° W 03:46:50 18° W
Milstar 3 3.7 03:37:06 10° WSW 03:52:50 68° S 03:56:12 44° ESE
Terra 3.2 03:56:00 28° NE 03:56:00 28° NE 03:58:59 10° N
USA 308 4.4 03:53:05 10° NNW 03:56:12 31° NNE 03:56:12 31° NNE
CARTOSAT-1 4.4 03:58:15 46° N 03:58:15 46° N 04:01:21 10° N
Tianhe-1 4.4 04:00:15 10° W 04:00:19 10° W 04:00:19 10° W
Cosmos 2082 Rocket 2.4 03:59:59 10° NNW 04:05:04 60° NE 04:05:04 60° NE
ARIANE 5 R/B 3.5 04:08:41 45° NNW 04:08:41 45° NNW 04:11:45 10° NNW
SPOT 5 3.4 04:12:49 58° N 04:12:49 58° N 04:17:06 10° N
Cosmos 1898 Rocket 4.0 04:14:18 56° N 04:14:18 56° N 04:18:30 10° NNE
SJ 16-02 3.9 04:13:22 11° WSW 04:16:20 19° WNW 04:19:28 10° NNW
Cosmos 1943 Rocket 3.0 04:20:39 41° NE 04:20:39 41° NE 04:24:17 10° NNE
COSMOS 2406 3.9 04:13:40 10° NW 04:19:01 45° WSW 04:19:01 45° WSW
Cosmos 990 Rocket 4.5 04:19:25 57° NW 04:19:25 57° NW 04:24:17 10° N
DNEPR-1 R/B 4.5 04:25:23 69° NW 04:25:23 69° NW 04:30:39 10° NNE
Cosmos 2369 Rocket 4.0 04:33:00 21° NE 04:33:00 21° NE 04:34:57 10° NE
Meteor 1-27 Rocket 4.5 04:34:48 48° W 04:35:05 48° WNW 04:40:47 10° N
CZ-4C R/B 3.9 04:41:59 10° NW 04:49:10 39° WSW 04:49:57 38° SW
NOSS 3-4 (A) 4.0 04:47:38 10° NW 04:54:35 66° W 04:54:35 66° W
NOSS 3-4 (C) 4.0 04:47:45 10° NW 04:54:41 67° W 04:54:41 67° W
ATLAS 2AS CENTAUR R/B 3.0 05:01:10 10° NNW 05:07:07 64° NNW 05:07:07 64° NNW
Terra 4.4 05:34:53 14° WNW 05:34:53 14° WNW 05:35:59 10° NW
Cosmos 2369 Rocket 4.2 06:14:45 21° NW 06:14:45 21° NW 06:18:05 10° N
Lacrosse 5 4.3 06:27:22 17° NNE 06:27:22 17° NNE 06:28:35 10° NNE
Cosmos 2297 Rocket 4.2 07:07:44 10° N 07:11:56 21° ENE 07:12:27 21° ENE
COSMOS 2455 3.5 07:42:32 10° NNW 07:47:29 50° NNE 07:47:29 50° NNE
Cosmos 2219 4.1 07:51:22 10° N 07:56:43 43° ENE 07:56:43 43° ENE
Lacrosse 4 Rocket 3.6 08:02:37 25° NE 08:02:37 25° NE 08:04:36 10° NNE
SL-16 R/B 2.9 08:00:36 58° E 08:00:46 58° ENE 08:06:54 10° N
Lacrosse 5 4.4 08:06:31 11° NW 08:07:25 12° NNW 08:09:19 10° N
ADEOS II 3.2 08:02:46 10° NNE 08:06:52 37° ENE 08:06:52 37° ENE
NPP 4.2 08:09:51 10° NNE 08:14:01 55° NNE 08:14:01 55° NNE
CZ-2D R/B 2.9 08:10:31 10° N 08:14:26 48° N 08:14:26 48° N
BREEZE-M DEB (TANK) 3.8 08:19:53 43° NNW 08:20:01 43° NNW 08:29:20 10° NE
Resurs 1-4 Rocket 2.9 08:16:35 10° N 08:20:20 44° NNW 08:20:20 44° NNW
Cosmos 1697 Rocket 3.1 08:24:06 57° NNW 08:24:06 57° NNW 08:28:41 10° NNE
Cosmos 2360 4.4 08:24:06 66° N 08:24:06 66° N 08:29:01 10° NNE
USA 215 3.2 08:26:21 71° WNW 08:26:21 71° WNW 08:32:11 10° NW
Atlas Centaur 2 4.0 08:28:29 26° SE 08:28:29 26° SE 08:32:55 10° E
Cosmos 1725 Rocket 4.0 08:22:54 10° N 08:29:09 73° E 08:29:36 69° ESE
GP-B 4.4 08:27:13 10° NNE 08:30:47 36° ENE 08:30:47 36° ENE
Meteor 1-16 Rocket 4.3 08:25:49 10° N 08:31:25 79° NNE 08:31:25 79° NNE
Cosmos 1624 Rocket 4.3 08:32:24 63° ENE 08:32:24 63° ENE 08:37:06 10° NNE
Cosmos 1459 Rocket 4.4 08:27:07 10° NNW 08:32:03 49° NW 08:32:03 49° NW
USA 281 3.2 08:36:07 61° W 08:36:07 61° W 08:41:58 10° NNW
Cosmos 1980 Rocket 2.3 08:35:56 72° E 08:35:56 72° E 08:41:22 10° NNE
Cosmos 1626 4.3 08:42:30 22° N 08:42:30 22° N 08:43:55 10° N
Cosmos 2016 Rocket 3.9 08:37:01 10° N 08:43:02 72° W 08:43:02 72° W
DELTA 2 DEB (DPAF) 4.5 08:51:43 62° NE 08:51:43 62° NE 08:55:52 10° N
Cosmos 2061 Rocket 4.0 08:47:08 10° NNW 08:53:24 64° W 08:53:38 63° WSW
Cosmos 2056 Rocket 3.5 08:53:58 68° NNW 08:53:58 68° NNW 08:58:39 10° NNE
Cosmos 2227 Rocket 2.3 08:47:57 10° NNW 08:52:41 58° WNW 08:52:41 58° WNW
Timation 2 Rocket 3.9 08:47:49 10° NNW 08:53:11 61° W 08:53:11 61° W
Cosmos 2285 Rocket 3.9 08:55:09 67° SW 08:56:03 82° WNW 09:02:30 10° NNE
Cosmos 2297 Rocket 3.2 08:50:46 10° NNW 08:54:12 33° WNW 08:54:12 33° WNW
Cosmos 2369 4.1 08:56:41 49° WNW 08:56:41 49° WNW 09:02:12 10° N
Cosmos 2278 3.5 08:57:34 77° SW 08:57:57 83° WNW 09:03:42 10° NNE
Cosmos 1300 3.8 08:56:23 10° N 08:59:48 42° ENE 08:59:48 42° ENE
Cosmos 1371 Rocket 4.4 09:06:35 46° WNW 09:06:35 46° WNW 09:11:24 10° N
OAO 2 Rocket 3.4 09:08:20 65° WNW 09:09:05 79° N 09:14:26 10° E
Cosmos 2082 3.7 09:03:35 10° NNW 09:09:19 81° ENE 09:12:48 25° SSE
SL-16 R/B 3.4 09:08:41 24° SSE 09:11:17 36° ESE 09:16:23 10° NE
MSX 4.0 09:11:04 10° NNE 09:16:50 68° ESE 09:19:16 35° S
IRS-1D 4.0 09:15:47 10° N 09:20:52 46° WNW 09:21:23 45° W
Cosmos 1140 Rocket 3.3 09:16:54 10° NNW 09:22:06 73° WSW 09:23:28 49° S
OAO 1 Rocket 4.3 09:21:59 60° SW 09:22:51 74° SSE 09:28:11 10° ENE
Cosmos 1340 3.2 09:24:29 49° NNW 09:24:29 49° NNW 09:27:29 10° N
Meteor 1-28 Rocket 4.0 09:28:39 39° NW 09:28:39 39° NW 09:31:12 10° NNW
IDEFIX/ARIANE 42P 2.6 09:23:11 10° N 09:28:24 65° WNW 09:29:42 48° SW
OAO 3 Copernicus 4.5 09:29:39 49° SSW 09:30:25 55° SSE 09:35:22 10° E
COSMOS 2441 4.3 09:31:34 10° NNE 09:36:30 88° E 09:38:30 37° SSW
Cosmos 2322 Rocket 2.9 09:34:49 20° S 09:38:29 48° ESE 09:43:55 10° NNE
Lacrosse 4 Rocket 3.7 09:38:55 13° WNW 09:39:13 13° NW 09:41:15 10° NNW
Meteor 2-10 Rocket 4.0 09:36:03 10° N 09:41:41 65° E 09:47:03 10° SSE
SL-16 R/B 4.1 09:45:41 17° W 09:45:41 17° W 09:48:45 10° NW
Meteor 1-24 Rocket 4.0 09:43:45 36° WSW 09:45:24 46° W 09:50:38 10° N
ADEOS II 3.5 09:43:15 10° NNW 09:47:03 21° WNW 09:47:48 20° W
Cosmos 1190 Rocket 4.2 09:42:33 10° NNW 09:47:34 48° WSW 09:49:43 30° SSW
ARIANE 5 R/B 2.4 09:42:34 10° N 09:47:40 73° WNW 09:50:05 31° SSW
Cosmos 2263 Rocket 2.9 09:43:08 10° N 09:48:40 54° ENE 09:54:12 10° SE
IRS-P3 4.3 09:43:30 10° N 09:48:42 55° WNW 09:50:55 32° SW
NOSS 3-2 (A) 3.1 09:47:34 32° SSW 09:50:13 89° SE 09:56:15 10° NNE
Cosmos 1726 Rocket 4.1 09:46:03 10° N 09:50:23 57° E 09:54:43 10° SSE
Cosmos 1606 Rocket 3.6 09:46:04 10° N 09:50:29 78° E 09:54:44 11° S
Cosmos 2228 2.9 09:47:54 10° N 09:52:12 81° W 09:55:08 20° S
Cosmos 2346 Rocket 4.4 09:49:08 17° S 09:53:56 90° ESE 10:00:01 10° N
CZ-4B R/B 3.7 09:53:00 10° N 09:57:55 53° WNW 10:00:27 28° SW
Cosmos 2360 Rocket 3.3 09:55:55 10° S 10:01:11 41° ESE 10:06:29 10° NE
ADEOS Rocket 4.0 09:59:24 20° SSW 10:03:57 39° W 10:11:04 10° NNW
USA 238 DEB 3.6 09:59:29 21° SSW 10:04:01 85° ESE 10:10:46 10° NNE
USA 238 3.6 09:59:34 21° SSW 10:04:08 84° ESE 10:10:52 10° NNE
CZ-4C R/B 4.4 10:05:32 27° WSW 10:05:53 27° W 10:09:30 10° NW
SWAS 4.4 10:04:02 29° SW 10:06:08 68° WNW 10:10:26 10° NNE
CZ-3B R/B 2.7 10:08:24 16° SSE 10:08:24 16° SSE 10:10:34 10° SE
Aureole 2 Rocket 1.7 10:07:36 10° NNW 10:10:15 58° WSW 10:11:05 36° SSW
Cosmos 405 3.7 10:07:56 10° NNW 10:11:06 32° W 10:11:42 30° WSW
Cosmos 676 Rocket 4.2 10:06:24 10° NNW 10:11:29 49° WSW 10:16:33 10° S
Cosmos 1513 Rocket 4.4 10:05:24 10° NNW 10:11:30 67° W 10:17:29 10° S
SAR-Lupe-3 4.5 10:10:13 10° N 10:13:49 79° WNW 10:16:20 19° SSW
CZ-2C R/B 3.1 10:15:54 11° S 10:15:54 11° S 10:16:06 10° S
BREEZE-M DEB (TANK) 4.0 10:02:12 10° NW 10:14:11 77° NE 10:17:39 10° ESE
Atlas Centaur 2 2.9 10:11:03 20° SW 10:16:10 54° SSE 10:22:15 10° E
Cosmos 1464 Rocket 4.0 10:10:53 10° NNW 10:16:59 66° W 10:23:09 10° S
Cosmos 1980 Rocket 4.1 10:17:42 11° W 10:20:14 14° NW 10:23:05 10° NNW
ISS -2.2 10:17:46 10° NNW 10:20:58 39° NE 10:24:09 10° ESE
Cosmos 1626 Rocket 4.3 10:17:21 10° S 10:21:36 54° E 10:25:55 10° NNE
CENTAUR R/B 2.4 10:21:27 16° SW 10:25:54 74° WNW 10:32:27 10° NNE
Cosmos 2034 Rocket 4.0 10:20:59 10° N 10:27:19 80° W 10:33:34 10° S
Cosmos 1184 Rocket 3.3 10:27:01 10° S 10:30:07 56° E 10:33:15 10° NNE
Cosmos 2227 4.1 10:24:41 10° NNW 10:30:19 72° WSW 10:35:53 10° SSE
PAYLOAD A 4.0 10:27:09 10° N 10:31:44 54° WNW 10:36:17 10° SSW
Cosmos 1331 Rocket 4.0 10:27:26 12° SSW 10:32:10 64° WNW 10:37:19 10° N
ATLAS 2A CENTAUR R/B 3.1 10:32:54 15° SW 10:36:02 40° SSE 10:47:37 10° E
Aureole 1 Rocket 3.2 10:36:55 10° NNW 10:40:36 73° ENE 10:45:22 10° SSE
Cosmos 1346 Rocket 4.2 10:39:36 14° WSW 10:41:50 21° WNW 10:44:51 10° NNW
USA 234 4.2 10:37:35 10° ENE 10:43:43 42° SE 10:49:50 10° SSW
ASTEX 1 4.3 10:40:05 10° SSE 10:44:55 55° E 10:49:47 10° N
Cosmos 389 Rocket 2.6 10:41:33 10° NNW 10:44:56 50° W 10:48:15 10° S
FENGYUN 3A 3.6 10:41:16 10° N 10:46:38 76° WNW 10:52:00 10° SSW
CZ-2C R/B 3.0 10:42:41 10° N 10:47:32 43° WNW 10:52:25 10° SW
PSLV R/B 3.5 10:43:57 10° N 10:48:07 66° WNW 10:52:18 10° SSW
Cosmos 1455 2.9 10:47:54 10° NNW 10:51:24 33° W 10:54:53 10° SSW
ALOS 2.3 10:47:32 10° N 10:52:10 67° WNW 10:56:46 10° SSW
SEDSat Delta rocket 3.5 10:48:20 10° WSW 10:53:32 57° S 10:58:05 10° E
OAO 2 Rocket 3.6 10:48:49 10° W 10:54:08 78° N 10:59:28 10° E
Cosmos 2333 Rocket 3.1 10:48:47 10° S 10:54:20 52° ESE 10:59:55 10° NNE
SL-16 R/B 3.4 10:50:42 10° WSW 10:55:22 26° WNW 11:00:05 10° N
Cosmos 1703 4.1 10:52:54 10° SW 10:56:21 31° W 10:59:50 10° NNW
Cosmos 1328 4.0 10:52:30 10° SSW 10:56:26 55° W 11:00:22 10° N
Cosmos 1850 Rocket 4.4 10:57:09 10° NNW 11:02:13 45° WSW 11:07:15 10° S
